User: anonymous   Login
Location: Deer Lodge Site
(39.6809°N, 119.9392°W)
Time: 18:25:31
(UTC-07:00)
Language:

CZ-4C R/B - Orbit

View from above orbital plane
View from above orbital plane
View from above satellite
View from above satellite

Ground track
Ground track

The orbit data is extracted from the following two-line orbital elements,

1 36416U 10009D   14296.68767618 -.00000016  00000-0  67753-4 0  7719
2 36416 063.4491 336.1849 0292399 359.9360 000.1593 13.69426916231878
Epoch (UTC): 23 October 2014 16:30:15
Eccentricity: 0.0292399
inclination: 63.4491°
perigee height: 786 km
apogee height: 1217 km
right ascension of ascending node: 336.1849°
argument of perigee: 359.9360°
revolutions per day: 13.69426916
mean anomaly at epoch: 0.1593°
orbit number at epoch: 23187

The dashed part of the orbit path shows where the satellite is in the earth's shadow,  

DLR